This is the latest recevied weather packets stored in our database for station/object HS3MXC-3. If no packets are shown the sender has not sent any weather packets the latest 10 day(s).
| Time | Temp. | Humidity | Pressure | Rain* | Wind** | Luminosity | Snow |
|---|---|---|---|---|---|---|---|
| 1777892599 | 31.67° C | 68% | 996.9 hPa | - | - | - | - |
| 1777892291 | 31.67° C | 66% | 996.5 hPa | - | - | - | - |
| 1777891984 | 32.22° C | 63% | 996.5 hPa | - | - | - | - |
| 1777891677 | 32.22° C | 60% | 996.4 hPa | - | - | - | - |
| 1777891369 | 32.22° C | 58% | 996.4 hPa | - | - | - | - |
| 1777891061 | 32.78° C | 55% | 996.4 hPa | - | - | - | - |
| 1777890447 | 33.33° C | 58% | 994.7 hPa | - | - | - | - |
| 1777890139 | 33.33° C | 58% | 994.6 hPa | - | - | - | - |
| 1777889830 | 33.33° C | 59% | 994.1 hPa | - | - | - | - |
| 1777889521 | 33.33° C | 60% | 994.2 hPa | - | - | - | - |
| 1777889214 | 33.33° C | 61% | 994.2 hPa | - | - | - | - |
| 1777888908 | 33.89° C | 60% | 993.9 hPa | - | - | - | - |
| 1777888600 | 33.89° C | 59% | 993.9 hPa | - | - | - | - |
| 1777888292 | 34.44° C | 59% | 993.9 hPa | - | - | - | - |
| 1777887986 | 34.44° C | 59% | 993.9 hPa | - | - | - | - |
| 1777887678 | 34.44° C | 59% | 994 hPa | - | - | - | - |
| 1777887063 | 34.44° C | 60% | 993.9 hPa | - | - | - | - |
| 1777886755 | 35° C | 60% | 993.7 hPa | - | - | - | - |
| 1777886449 | 34.44° C | 60% | 993.5 hPa | - | - | - | - |
| 1777886142 | 34.44° C | 61% | 993.6 hPa | - | - | - | - |
| 1777885835 | 34.44° C | 61% | 993.6 hPa | - | - | - | - |
| 1777885527 | 34.44° C | 62% | 993.6 hPa | - | - | - | - |
| 1777720920 | 35° C | 56% | 993 hPa | - | - | - | - |
| 1777720613 | 35° C | 55% | 993 hPa | - | - | - | - |
| 1777720306 | 35° C | 55% | 993 hPa | - | - | - | - |
* Rain since midnight (hover to see other rain measurements)
** Current wind speed in m/s (hover to see current wind gust speed)